Regional Weather Roundup
Issued by NWS

Home | Current Version | Previous Version | Text Only | Print | Product List | Glossary Off
Versions: 1 2 3 4 5 6 7 8 9 10 11 12 13 14 15 16 17 18 19 20 21 22 23 24 25 26 27 28 29 30 31 32 33 34 35 36 37 38 39 40 41 42 43 44 45 46 47 48 49 50

000
ASUS43 KDTX 252301
RWRMI
MICHIGAN HOURLY REGIONAL WEATHER ROUNDUP
NATIONAL WEATHER SERVICE DETROIT/PONTIAC MI
700 PM EDT SUN SEP 25 2016

NOTE: "FAIR" INDICATES FEW OR NO CLOUDS BELOW 12,000 FEET WITH NO
SIGNIFICANT WEATHER AND/OR OBSTRUCTION TO VISIBILITY.

MIZ047>049-052>055-059>063-066>070-074>076-081>083-260000-
SOUTHEAST LOWER MICHIGAN

CITY           SKY/WX    TMP DP  RH WIND       PRES   REMARKS
ADRIAN         CLEAR     68  52  56 E7        30.06F
ALMA           PTCLDY    71  56  58 S7        30.02S
ANN ARBOR      CLEAR     65  49  56 E8        30.06F
BAD AXE        MOCLDY    64  50  60 SE6       30.07S
CARO           MOCLDY    65  52  61 SE6       30.04F
DETROIT CITY   CLEAR     67  46  47 SE10      30.07F
DETROIT        MOCLDY    67  47  48 SE8       30.07F
FLINT          PTCLDY    66  51  58 SE12      30.05S
GROSSE ILE     CLEAR     66  49  53 SE6       30.06S
HILLSDALE      CLOUDY    72  46  40 SE7       30.04S
HOWELL         CLEAR     67  48  51 S7        30.06R

CITY           SKY/WX    TMP DP  RH WIND       PRES   REMARKS
JACKSON        CLOUDY    69  46  43 SE9       30.05R
LAMBERTVILLE   CLEAR     68  53  58 E7        30.05F
LANSING        PTCLDY    71  50  47 SE12      30.03S
LAPEER         MOCLDY    65  47  51 S5        30.07S
MASON          CLEAR     69  48  48 SE7       30.04S
MONROE         CLEAR     67  51  57 S7        30.05F
MT. CLEMENS    MOCLDY    65  51  60 SE13      30.06F
PONTIAC        CLOUDY    67  47  48 SE9       30.06F
PORT HOPE        N/A     65  52  62 SE10      30.05S
PORT HURON     PTCLDY    64  52  63 SE7       30.09S
TRI CITIES     CLEAR     70  52  52 SE9       30.03F
MIDLAND        FAIR      70  53  54 SE7       30.01F
TROY           CLOUDY    70  42  36 E5        30.09F
SAGINAW HB     CLEAR     70  52  52 SE12      30.03F
$$
MIZ043>046-050>051-056>058-064>065-071>073-077>080-260000-
SOUTHWEST LOWER MICHIGAN

CITY           SKY/WX    TMP DP  RH WIND       PRES   REMARKS
BATTLE CREEK   CLEAR     74  57  55 SE9       30.00F
BENTON HARBOR  PTCLDY    79  65  62 SE10      29.93F
BIG RAPIDS     CLEAR     68  58  69 SE6       29.97F
COLDWATER      CLEAR     72  55  54 E6        30.01F
FREMONT        FAIR      70  58  65 SE7       29.95S
HOLLAND        CLEAR     74  61  63 E10       29.94F
GRAND RAPIDS   PTCLDY    72  55  55 SE13      29.98F
IONIA          FAIR      69  49  49 SE10      29.99F
KALAMAZOO      PTCLDY    75  60  59 SE6       29.97F
LUDINGTON      CLOUDY    70  62  73 SE13      29.89F
MARSHALL       PTCLDY    72  53  51 SE7       30.00F
MUSKEGON       MOCLDY    73  61  65 SE13      29.92F
SOUTH HAVEN    CLEAR     78  67  67 SE7       29.94S
$$
MIZ016>042-260000-
NORTHERN LOWER MICHIGAN

CITY           SKY/WX    TMP DP  RH WIND       PRES   REMARKS
ALPENA         PTCLDY    65  54  67 SE14G21   30.02F
BEAVER ISLAND  MOCLDY    67  57  68 E8        29.91F
BELLAIRE       CLEAR     70  54  56 SE8       29.94F
CADILLAC       PTCLDY    66  54  64 SE10      29.98S
CHARLEVOIX     PTCLDY    70  53  55 SE13G18   29.95F
FRANKFORT      MOCLDY    72  59  65 SE16G22   29.89F
GAYLORD        MOCLDY    67  50  54 S13       29.99S
GRAYLING       CLOUDY    67  54  62 SE8       30.01S
HARBOR SPRINGS MOCLDY    68  52  55 E6        29.94F
HOUGHTON LAKE  CLEAR     66  53  63 SE9       30.02S
MANISTEE       CLOUDY    71  61  70 SE8G16    29.89F
OSCODA         CLEAR     65  54  66 SE9       30.03F
PELLSTON       MOCLDY    68  51  54 SE8       29.95F
ROGERS CITY    MOCLDY    65  54  65 SE13G18   30.01F
TRAVERSE CITY  CLOUDY    72  56  57 SE9       29.91F
$$
MIZ007>008-015-260000-
EASTERN UPPER MICHIGAN

CITY           SKY/WX    TMP DP  RH WIND       PRES   REMARKS
KINROSS        CLOUDY    62  52  69 SE17      29.98F
MACKINAC ISLAN MOCLDY    64  55  73 E13G22    29.96F
NEWBERRY       CLOUDY    60  55  85 E10G16    29.92F
S. S. MARIE    CLOUDY    63  54  72 SE14      29.98F
MUNISING         N/A     61  59  93 S12G18    29.83F
$$
MIZ004>006-011>014-085-260000-
CENTRAL UPPER MICHIGAN

CITY           SKY/WX    TMP DP  RH WIND       PRES   REMARKS
MANISTIQUE     CLOUDY    65  60  84 E13G18    29.88F
ESCANABA       HVY RAIN  65  64  97 SE8       29.86F FOG
MENOMINEE        N/A    N/A N/A N/A MISG        N/A
SAWYER-GWINN   RAIN      61  59  94 S10       29.85F
$$
MIZ001>003-009>011-084-260000-
WESTERN UPPER MICHIGAN

CITY           SKY/WX    TMP DP  RH WIND       PRES   REMARKS
IRON MOUNTAIN  CLOUDY    65  62  90 SE9       29.82F
HOUGHTON       CLOUDY    64  62  93 S7        29.77F
COPPER HARBOR    N/A     64  62  93 S10G23    29.77F
IRONWOOD       CLOUDY    65  55  70 W14       29.80R
$$

ABBREVIATIONS USED IN REMARKS
   TC - TEMPERATURE IN CELSIUS
  WCI - WIND CHILL INDEX
   HX - HEAT INDEX
  VSB - VISIBILITY




USA.gov is the U.S. government's official web portal to all federal, state and local government web resources and services.